CDT,Max TemperatureF,Mean TemperatureF,Min TemperatureF,Max Dew PointF,MeanDew PointF,Min DewpointF,Max Humidity, Mean Humidity, Min Humidity, Max Sea Level PressureIn, Mean Sea Level PressureIn, Min Sea Level PressureIn, Max VisibilityMiles, Mean VisibilityMiles, Min VisibilityMiles, Max Wind SpeedMPH, Mean Wind SpeedMPH, Max Gust SpeedMPH,PrecipitationIn, CloudCover, Events, WindDirDegrees
2013-6-1,91,84,76,74,73,72,94,75,56,29.95,29.93,29.89,10,10,10,15,7,22,0.00,3,,176
2013-6-2,85,80,75,75,72,68,94,77,59,29.99,29.94,29.87,10,9,2,10,3,18,0.07,4,Rain,101
2013-6-3,91,82,73,73,71,68,93,70,47,29.94,29.90,29.84,10,10,5,13,4,20,0.00,3,,28
2013-6-4,94,84,73,75,71,68,87,67,46,29.93,29.89,29.83,10,10,10,8,2,12,0.00,2,,56
2013-6-5,93,84,74,75,73,72,94,75,56,29.91,29.87,29.79,10,10,7,12,3,15,0.00,2,,91
2013-6-6,91,80,69,75,70,63,97,78,59,29.88,29.83,29.73,10,8,0,37,7,55,1.93,4,Rain-Thunderstorm,311
2013-6-7,86,78,70,72,68,64,97,73,48,29.90,29.87,29.83,10,10,8,12,5,17,0.00,5,,304
2013-6-8,89,80,70,71,69,66,93,72,51,29.95,29.92,29.89,10,9,6,26,3,35,0.06,2,Rain,32
2013-6-9,89,80,71,75,70,63,93,76,59,29.98,29.93,29.89,10,10,10,16,4,20,0.01,2,Rain-Thunderstorm,174
2013-6-10,88,80,72,76,73,69,93,76,59,30.02,30.00,29.96,10,10,6,16,5,21,0.00,1,Thunderstorm,196
2013-6-11,92,84,75,76,74,68,94,71,47,30.09,30.05,30.01,10,7,1,13,3,16,0.00,3,,190
2013-6-12,91,83,74,76,73,70,94,73,52,30.10,30.06,30.01,10,9,4,12,4,16,T,2,,191
2013-6-13,94,85,75,77,73,68,94,69,44,30.07,30.01,29.92,10,10,7,13,5,17,0.00,2,,274
2013-6-14,96,88,79,80,75,72,91,72,53,29.97,29.93,29.85,10,10,10,18,6,24,T,2,Thunderstorm,301
2013-6-15,93,84,74,80,73,69,94,75,56,30.00,29.96,29.92,10,9,4,9,3,14,0.08,2,Rain-Thunderstorm,52
2013-6-16,92,85,78,76,73,70,91,72,52,30.06,30.00,29.96,10,10,7,14,6,18,0.00,2,,226
2013-6-17,91,83,75,74,72,68,94,72,49,30.03,29.98,29.92,10,10,10,16,6,20,T,2,Rain,221
2013-6-18,92,83,74,73,70,67,94,71,47,30.01,29.97,29.90,10,10,10,22,7,26,0.00,2,,241
2013-6-19,86,80,74,74,73,70,94,80,65,30.06,30.01,29.95,10,8,0,12,2,14,0.49,4,Fog-Rain,40
2013-6-20,91,83,74,75,73,70,94,73,52,30.12,30.07,30.02,10,9,2,15,4,21,0.06,3,Rain-Thunderstorm,251
2013-6-21,94,84,74,75,73,71,94,73,52,30.12,30.08,30.06,10,9,2,15,2,20,0.23,2,Rain-Thunderstorm,35
2013-6-22,92,83,73,74,72,68,94,71,47,30.10,30.05,30.00,10,9,5,8,2,14,0.00,0,,93
2013-6-23,89,81,73,75,73,70,94,75,56,30.06,30.03,30.01,10,10,6,22,2,25,T,2,Thunderstorm,61
2013-6-24,89,82,75,75,73,70,94,75,55,30.12,30.08,30.04,10,9,3,16,3,21,0.03,1,Rain-Thunderstorm,182
2013-6-25,91,83,74,75,73,67,94,71,47,30.09,30.05,29.99,10,10,8,15,4,17,0.02,1,,179
2013-6-26,94,84,74,75,72,68,94,69,44,30.06,30.00,29.95,10,10,8,13,4,16,0.00,2,,213
2013-6-27,95,85,75,76,73,70,88,66,43,30.03,29.99,29.93,10,10,10,12,5,16,0.00,1,,270
2013-6-28,94,87,80,77,75,72,85,67,49,29.97,29.90,29.79,10,10,10,15,9,20,0.00,1,,267
2013-6-29,96,87,77,77,75,71,91,69,46,29.82,29.78,29.70,10,9,2,20,5,24,0.18,5,Rain-Thunderstorm,238
2013-6-30,94,85,75,73,65,57,88,59,30,29.82,29.78,29.75,10,10,10,17,7,23,0.00,0,,329